| time (UTC) | temp F | wind direction | speed knots | gust knots | rain 1hr in | rain 24hr in | rain mn in | humidity % | barometer mb |
| 20260906145519 | 80 | 304 | 0.0 | 1.7 | 0.00 | 0.00 | 0.00 | 79 | 1019.0 |
| 20260906145014 | 80 | 3 | 1.7 | 2.6 | 0.00 | 0.00 | 0.00 | 78 | 1019.1 |
| 20260906144508 | 79 | 290 | 0.9 | 1.7 | 0.00 | 0.00 | 0.00 | 79 | 1019.1 |
| 20260906144004 | 79 | 63 | 0.9 | 2.6 | 0.00 | 0.00 | 0.00 | 78 | 1019.0 |
| 20260906143459 | 80 | 259 | 0.0 | 1.7 | 0.00 | 0.00 | 0.00 | 78 | 1019.0 |
| 20260906142955 | 80 | 246 | 0.9 | 4.3 | 0.00 | 0.00 | 0.00 | 78 | 1018.9 |
| 20260906142449 | 80 | 198 | 0.0 | 0.9 | 0.00 | 0.00 | 0.00 | 78 | 1018.8 |
| 20260906141944 | 80 | 278 | 0.0 | 0.9 | 0.00 | 0.00 | 0.00 | 78 | 1018.9 |
| 20260906141443 | 80 | 189 | 0.0 | 1.7 | 0.00 | 0.00 | 0.00 | 79 | 1018.7 |
| 20260906140938 | 80 | 272 | 0.0 | 0.9 | 0.00 | 0.00 | 0.00 | 80 | 1018.8 |
| 20260906140433 | 80 | 271 | 0.0 | 0.9 | 0.00 | 0.00 | 0.00 | 79 | 1018.7 |
| 20260906135931 | 80 | 295 | 0.9 | 2.6 | 0.00 | 0.00 | 0.00 | 79 | 1018.4 |
| 20260906135430 | 79 | 275 | 0.0 | 2.6 | 0.00 | 0.00 | 0.00 | 80 | 1018.8 |
| 20260906134926 | 79 | 309 | 0.0 | 1.7 | 0.00 | 0.00 | 0.00 | 80 | 1018.7 |
| 20260906134421 | 80 | 295 | 0.0 | 0.9 | 0.00 | 0.00 | 0.00 | 80 | 1018.7 |
| 20260906133916 | 80 | 261 | 0.0 | 2.6 | 0.00 | 0.00 | 0.00 | 80 | 1018.9 |
| 20260906133411 | 78 | 239 | 0.0 | 0.9 | 0.00 | 0.00 | 0.00 | 83 | 1018.8 |
| 20260906132907 | 78 | 265 | 0.0 | 0.9 | 0.00 | 0.00 | 0.00 | 82 | 1018.9 |
| 20260906132402 | 78 | 285 | 0.0 | 0.0 | 0.00 | 0.00 | 0.00 | 83 | 1018.8 |
| 20260906131857 | 78 | 279 | 0.9 | 0.9 | 0.00 | 0.00 | 0.00 | 84 | 1018.7 |
| 20260906131353 | 77 | 261 | 0.0 | 1.7 | 0.00 | 0.00 | 0.00 | 85 | 1019.0 |
| 20260906130849 | 77 | 282 | 0.0 | 0.9 | 0.00 | 0.00 | 0.00 | 85 | 1018.8 |
| 20260906130348 | 77 | 321 | 0.0 | 0.9 | 0.00 | 0.00 | 0.00 | 86 | 1018.7 |
| 20260906125847 | 77 | 273 | 0.0 | 0.9 | 0.00 | 0.00 | 0.00 | 86 | 1018.8 |
| 20260906125344 | 76 | 303 | 0.9 | 0.9 | 0.00 | 0.00 | 0.00 | 87 | 1018.8 |
| 20260906124839 | 76 | 8 | 1.7 | 1.7 | 0.00 | 0.00 | 0.00 | 87 | 1018.6 |
| 20260906124335 | 76 | 10 | 0.0 | 0.9 | 0.00 | 0.00 | 0.00 | 87 | 1018.5 |
| 20260906123834 | 76 | 265 | 0.0 | 1.7 | 0.00 | 0.00 | 0.00 | 88 | 1018.6 |
| 20260906123329 | 76 | 308 | 0.0 | 0.0 | 0.00 | 0.00 | 0.00 | 88 | 1018.6 |
| 20260906122829 | 76 | 290 | 0.0 | 1.7 | 0.00 | 0.00 | 0.00 | 88 | 1018.4 |
| 20260906122324 | 76 | 287 | 0.0 | 0.0 | 0.00 | 0.00 | 0.00 | 88 | 1018.4 |
| 20260906121821 | 76 | 289 | 0.0 | 0.9 | 0.00 | 0.00 | 0.00 | 88 | 1018.3 |
| 20260906121317 | 76 | 250 | 0.0 | 0.9 | 0.00 | 0.00 | 0.00 | 88 | 1018.0 |
| 20260906120813 | 76 | 289 | 0.0 | 0.0 | 0.00 | 0.00 | 0.00 | 88 | 1018.2 |
| 20260906120308 | 76 | 280 | 0.0 | 0.9 | 0.00 | 0.00 | 0.00 | 88 | 1018.2 |
| 20260906115805 | 76 | 307 | 0.0 | 0.9 | 0.00 | 0.00 | 0.00 | 88 | 1018.1 |
| 20260906115300 | 76 | 294 | 0.0 | 0.0 | 0.00 | 0.00 | 0.00 | 88 | 1018.0 |
| 20260906114759 | 76 | 294 | 0.0 | 0.0 | 0.00 | 0.00 | 0.00 | 88 | 1018.1 |
| 20260906114254 | 76 | 295 | 0.0 | 0.0 | 0.00 | 0.00 | 0.00 | 87 | 1018.1 |
| 20260906113749 | 76 | 286 | 0.0 | 0.0 | 0.00 | 0.00 | 0.00 | 87 | 1018.2 |
| 20260906113248 | 76 | 296 | 0.0 | 0.0 | 0.00 | 0.00 | 0.00 | 87 | 1017.9 |
| 20260906112743 | 76 | 286 | 0.0 | 0.0 | 0.00 | 0.00 | 0.00 | 87 | 1018.0 |
| 20260906112239 | 76 | 280 | 0.0 | 0.0 | 0.00 | 0.00 | 0.00 | 87 | 1017.9 |
| 20260906111739 | 76 | 279 | 0.0 | 0.0 | 0.00 | 0.00 | 0.00 | 87 | 1017.8 |
| 20260906111233 | 77 | 287 | 0.0 | 0.0 | 0.00 | 0.00 | 0.00 | 87 | 1017.9 |
| 20260906110728 | 77 | 338 | 0.0 | 0.9 | 0.00 | 0.00 | 0.00 | 87 | 1017.7 |
| 20260906110224 | 77 | 293 | 0.0 | 0.0 | 0.00 | 0.00 | 0.00 | 87 | 1017.8 |
| 20260906105723 | 77 | 282 | 0.0 | 0.9 | 0.00 | 0.00 | 0.00 | 86 | 1017.9 |
| 20260906105219 | 77 | 320 | 0.0 | 0.0 | 0.00 | 0.00 | 0.00 | 86 | 1017.6 |
| 20260906104719 | 77 | 210 | 0.0 | 0.9 | 0.00 | 0.00 | 0.00 | 86 | 1017.6 |
| 20260906104218 | 77 | 294 | 0.0 | 0.9 | 0.00 | 0.00 | 0.00 | 86 | 1017.6 |
| 20260906103716 | 77 | 28 | 0.0 | 0.9 | 0.00 | 0.00 | 0.00 | 85 | 1017.5 |
| 20260906103211 | 77 | 301 | 0.9 | 0.9 | 0.00 | 0.00 | 0.00 | 85 | 1017.4 |
| 20260906102706 | 77 | 285 | 0.0 | 0.0 | 0.00 | 0.00 | 0.00 | 85 | 1017.5 |
| 20260906102205 | 77 | 286 | 0.0 | 0.0 | 0.00 | 0.00 | 0.00 | 85 | 1017.4 |
| 20260906101700 | 78 | 271 | 0.0 | 0.0 | 0.00 | 0.00 | 0.00 | 85 | 1017.6 |
| 20260906101155 | 78 | 0 | 0.0 | 0.9 | 0.00 | 0.00 | 0.00 | 85 | 1017.5 |
| 20260906100651 | 78 | 300 | 0.0 | 0.9 | 0.00 | 0.00 | 0.00 | 84 | 1017.3 |
| 20260906100151 | 78 | 275 | 0.0 | 1.7 | 0.00 | 0.00 | 0.00 | 84 | 1017.4 |
| 20260906095646 | 78 | 285 | 0.0 | 0.9 | 0.00 | 0.00 | 0.00 | 84 | 1017.4 |
| 20260906095141 | 78 | 298 | 0.0 | 0.0 | 0.00 | 0.00 | 0.00 | 84 | 1017.5 |
| 20260906094640 | 78 | 273 | 0.0 | 0.0 | 0.00 | 0.00 | 0.00 | 84 | 1017.2 |
| 20260906094136 | 78 | 287 | 0.0 | 0.9 | 0.00 | 0.00 | 0.00 | 84 | 1017.2 |
| 20260906093632 | 78 | 275 | 0.0 | 0.0 | 0.00 | 0.00 | 0.00 | 84 | 1017.2 |
| 20260906093132 | 79 | 274 | 0.0 | 0.9 | 0.00 | 0.00 | 0.00 | 84 | 1017.3 |
| 20260906092627 | 79 | 297 | 0.9 | 0.9 | 0.00 | 0.00 | 0.00 | 85 | 1017.2 |
| 20260906092122 | 79 | 299 | 0.9 | 2.6 | 0.00 | 0.00 | 0.00 | 85 | 1017.0 |
| 20260906091618 | 79 | 296 | 0.0 | 0.0 | 0.00 | 0.00 | 0.00 | 84 | 1017.0 |
| 20260906091114 | 79 | 275 | 0.0 | 2.6 | 0.00 | 0.00 | 0.00 | 84 | 1016.6 |
| 20260906090615 | 80 | 300 | 0.0 | 1.7 | 0.00 | 0.00 | 0.00 | 84 | 1016.9 |
| 20260906090114 | 80 | 297 | 0.0 | 0.9 | 0.00 | 0.00 | 0.00 | 84 | 1016.8 |
| 20260906085614 | 80 | 265 | 0.0 | 0.0 | 0.00 | 0.00 | 0.00 | 84 | 1016.8 |
| 20260906085108 | 80 | 273 | 0.0 | 0.0 | 0.00 | 0.00 | 0.00 | 83 | 1016.8 |
| 20260906084603 | 80 | 299 | 0.0 | 0.9 | 0.00 | 0.00 | 0.00 | 83 | 1016.6 |
| 20260906084101 | 80 | 282 | 0.0 | 1.7 | 0.00 | 0.00 | 0.00 | 83 | 1016.6 |
| 20260906083557 | 80 | 77 | 1.7 | 2.6 | 0.00 | 0.00 | 0.00 | 83 | 1016.6 |
| 20260906083057 | 81 | 180 | 1.7 | 2.6 | 0.00 | 0.00 | 0.00 | 83 | 1016.7 |
| 20260906082552 | 81 | 259 | 0.9 | 2.6 | 0.00 | 0.00 | 0.00 | 83 | 1016.8 |
| 20260906082048 | 81 | 285 | 0.0 | 0.9 | 0.00 | 0.00 | 0.00 | 82 | 1016.7 |
| 20260906081544 | 81 | 276 | 0.0 | 0.9 | 0.00 | 0.00 | 0.00 | 81 | 1016.7 |
| 20260906081039 | 81 | 270 | 0.0 | 0.9 | 0.00 | 0.00 | 0.00 | 81 | 1016.7 |
| 20260906080536 | 81 | 334 | 0.0 | 0.9 | 0.00 | 0.00 | 0.00 | 81 | 1016.8 |
| 20260906080031 | 82 | 207 | 0.9 | 1.7 | 0.00 | 0.00 | 0.00 | 81 | 1016.6 |
| 20260906075526 | 82 | 194 | 0.9 | 1.7 | 0.00 | 0.00 | 0.00 | 82 | 1016.8 |
| 20260906075020 | 82 | 185 | 0.0 | 0.0 | 0.00 | 0.00 | 0.00 | 82 | 1016.6 |
| 20260906074515 | 82 | 195 | 0.0 | 1.7 | 0.00 | 0.00 | 0.00 | 82 | 1016.6 |
| 20260906074013 | 82 | 284 | 0.0 | 0.0 | 0.00 | 0.00 | 0.00 | 83 | 1016.7 |
| 20260906073508 | 82 | 243 | 0.0 | 0.9 | 0.00 | 0.00 | 0.00 | 83 | 1016.7 |
| 20260906073005 | 82 | 318 | 0.0 | 2.6 | 0.00 | 0.00 | 0.00 | 83 | 1016.5 |
| 20260906072459 | 82 | 285 | 0.0 | 0.9 | 0.00 | 0.00 | 0.00 | 83 | 1016.5 |
| 20260906071955 | 83 | 284 | 0.0 | 0.9 | 0.00 | 0.00 | 0.00 | 83 | 1016.7 |
| 20260906071451 | 83 | 228 | 0.0 | 0.9 | 0.00 | 0.00 | 0.00 | 82 | 1016.7 |
| 20260906070946 | 83 | 234 | 0.0 | 0.9 | 0.00 | 0.00 | 0.00 | 82 | 1016.6 |
| 20260906070443 | 83 | 283 | 0.0 | 0.9 | 0.00 | 0.00 | 0.00 | 82 | 1016.5 |
| 20260906065938 | 83 | 289 | 0.9 | 1.7 | 0.00 | 0.00 | 0.00 | 82 | 1016.4 |
| 20260906065438 | 83 | 305 | 0.0 | 1.7 | 0.00 | 0.00 | 0.00 | 81 | 1016.6 |
| 20260906064933 | 84 | 284 | 0.0 | 0.9 | 0.00 | 0.00 | 0.00 | 81 | 1016.7 |
| 20260906064429 | 84 | 249 | 0.9 | 6.1 | 0.00 | 0.00 | 0.00 | 81 | 1016.8 |
| 20260906063924 | 84 | 264 | 0.0 | 0.9 | 0.00 | 0.00 | 0.00 | 80 | 1016.8 |
| 20260906063419 | 84 | 301 | 0.9 | 4.3 | 0.00 | 0.00 | 0.00 | 80 | 1016.8 |
| 20260906062914 | 84 | 198 | 0.9 | 1.7 | 0.00 | 0.00 | 0.00 | 79 | 1016.9 |
| 20260906062409 | 85 | 181 | 0.9 | 1.7 | 0.00 | 0.00 | 0.00 | 79 | 1016.8 |
| 20260906061904 | 85 | 243 | 0.9 | 0.9 | 0.00 | 0.00 | 0.00 | 78 | 1016.7 |
| 20260906061400 | 85 | 177 | 0.9 | 2.6 | 0.00 | 0.00 | 0.00 | 78 | 1016.7 |
| 20260906060854 | 85 | 254 | 0.0 | 0.9 | 0.00 | 0.00 | 0.00 | 77 | 1016.9 |
| 20260906060352 | 85 | 200 | 0.0 | 1.7 | 0.00 | 0.00 | 0.00 | 77 | 1016.9 |
| 20260906055848 | 85 | 185 | 0.9 | 4.3 | 0.00 | 0.00 | 0.00 | 77 | 1017.0 |
| 20260906055343 | 85 | 279 | 0.0 | 0.9 | 0.00 | 0.00 | 0.00 | 77 | 1016.7 |
| 20260906054838 | 85 | 301 | 0.0 | 0.9 | 0.00 | 0.00 | 0.00 | 77 | 1016.8 |
| 20260906054333 | 85 | 281 | 0.0 | 0.9 | 0.00 | 0.00 | 0.00 | 77 | 1016.6 |
| 20260906053830 | 85 | 274 | 0.0 | 0.9 | 0.00 | 0.00 | 0.00 | 77 | 1016.9 |
| 20260906053325 | 86 | 341 | 0.0 | 0.0 | 0.00 | 0.00 | 0.00 | 76 | 1016.7 |
| 20260906052820 | 86 | 298 | 0.0 | 0.9 | 0.00 | 0.00 | 0.00 | 76 | 1016.7 |
| 20260906052317 | 86 | 294 | 0.0 | 0.0 | 0.00 | 0.00 | 0.00 | 76 | 1016.9 |
| 20260906051814 | 86 | 347 | 0.0 | 0.9 | 0.00 | 0.00 | 0.00 | 76 | 1016.8 |
| 20260906051313 | 86 | 330 | 0.0 | 0.9 | 0.00 | 0.00 | 0.00 | 75 | 1016.9 |
| 20260906050808 | 86 | 330 | 0.0 | 0.0 | 0.00 | 0.00 | 0.00 | 75 | 1016.9 |
| 20260906050303 | 86 | 271 | 0.0 | 0.0 | 0.00 | 0.00 | 0.00 | 75 | 1016.8 |
| 20260906045802 | 86 | 278 | 0.0 | 0.0 | 0.00 | 0.00 | 0.00 | 74 | 1016.6 |
| 20260906045257 | 86 | 284 | 0.0 | 1.7 | 0.00 | 0.00 | 0.00 | 74 | 1016.6 |
| 20260906044753 | 87 | 303 | 0.0 | 0.0 | 0.00 | 0.00 | 0.00 | 74 | 1016.5 |
| 20260906044247 | 87 | 290 | 0.0 | 0.0 | 0.00 | 0.00 | 0.00 | 73 | 1016.6 |
| 20260906043744 | 87 | 275 | 0.0 | 0.0 | 0.00 | 0.00 | 0.00 | 73 | 1016.5 |
| 20260906043240 | 87 | 297 | 0.0 | 0.0 | 0.00 | 0.00 | 0.00 | 73 | 1016.6 |
| 20260906042739 | 87 | 286 | 0.0 | 0.0 | 0.00 | 0.00 | 0.00 | 72 | 1016.4 |
| 20260906042238 | 87 | 294 | 0.0 | 0.0 | 0.00 | 0.00 | 0.00 | 72 | 1016.4 |
| 20260906041734 | 87 | 292 | 0.0 | 0.9 | 0.00 | 0.00 | 0.00 | 71 | 1016.4 |
| 20260906041229 | 88 | 301 | 0.0 | 0.9 | 0.00 | 0.00 | 0.00 | 71 | 1016.4 |
| 20260906040724 | 88 | 300 | 0.9 | 1.7 | 0.00 | 0.00 | 0.00 | 71 | 1016.3 |
| 20260906040219 | 88 | 344 | 0.0 | 0.9 | 0.00 | 0.00 | 0.00 | 70 | 1016.3 |
| 20260906035714 | 88 | 341 | 0.0 | 0.0 | 0.00 | 0.00 | 0.00 | 70 | 1016.5 |
| 20260906035205 | 88 | 275 | 0.0 | 0.9 | 0.00 | 0.00 | 0.00 | 69 | 1016.4 |
| 20260906034704 | 88 | 268 | 0.0 | 0.9 | 0.00 | 0.00 | 0.00 | 69 | 1016.3 |
| 20260906034159 | 88 | 276 | 0.0 | 0.9 | 0.00 | 0.00 | 0.00 | 68 | 1016.2 |
| 20260906033655 | 88 | 305 | 0.0 | 0.9 | 0.00 | 0.00 | 0.00 | 68 | 1016.3 |
| 20260906033156 | 89 | 283 | 0.0 | 0.0 | 0.00 | 0.00 | 0.00 | 67 | 1016.3 |
| 20260906032652 | 89 | 276 | 0.0 | 0.9 | 0.00 | 0.00 | 0.00 | 66 | 1016.1 |
| 20260906032146 | 89 | 294 | 0.0 | 1.7 | 0.00 | 0.00 | 0.00 | 66 | 1016.0 |
| 20260906031641 | 89 | 300 | 0.0 | 0.9 | 0.00 | 0.00 | 0.00 | 65 | 1016.0 |
| 20260906031137 | 89 | 276 | 0.0 | 0.0 | 0.00 | 0.00 | 0.00 | 65 | 1015.9 |
| 20260906030636 | 89 | 284 | 0.0 | 1.7 | 0.00 | 0.00 | 0.00 | 64 | 1016.0 |
| 20260906030132 | 89 | 155 | 0.0 | 0.9 | 0.00 | 0.00 | 0.00 | 64 | 1016.2 |
| 20260906025631 | 88 | 282 | 0.0 | 0.9 | 0.00 | 0.00 | 0.00 | 64 | 1015.9 |
| 20260906025130 | 88 | 6 | 0.0 | 0.9 | 0.00 | 0.00 | 0.00 | 64 | 1015.8 |
| 20260906024625 | 88 | 283 | 0.0 | 0.9 | 0.00 | 0.00 | 0.00 | 64 | 1015.8 |
| 20260906024125 | 88 | 309 | 0.0 | 0.9 | 0.00 | 0.00 | 0.00 | 65 | 1015.8 |
| 20260906023621 | 88 | 296 | 0.0 | 0.0 | 0.00 | 0.00 | 0.00 | 64 | 1015.9 |
| 20260906023115 | 88 | 315 | 0.0 | 0.0 | 0.00 | 0.00 | 0.00 | 65 | 1015.5 |
| 20260906022610 | 88 | 297 | 0.0 | 0.0 | 0.00 | 0.00 | 0.00 | 64 | 1015.5 |
| 20260906022106 | 88 | 292 | 0.0 | 0.0 | 0.00 | 0.00 | 0.00 | 64 | 1015.4 |
| 20260906021602 | 88 | 306 | 0.0 | 0.0 | 0.00 | 0.00 | 0.00 | 64 | 1015.5 |
| 20260906021100 | 88 | 322 | 0.0 | 0.0 | 0.00 | 0.00 | 0.00 | 64 | 1015.4 |
| 20260906020600 | 89 | 295 | 0.0 | 0.0 | 0.00 | 0.00 | 0.00 | 63 | 1015.5 |
| 20260906020100 | 89 | 296 | 0.0 | 0.0 | 0.00 | 0.00 | 0.00 | 63 | 1015.2 |
| 20260906015554 | 89 | 304 | 0.0 | 0.0 | 0.00 | 0.00 | 0.00 | 63 | 1015.1 |
| 20260906015053 | 89 | 331 | 0.0 | 0.0 | 0.00 | 0.00 | 0.00 | 63 | 1015.1 |
| 20260906014548 | 89 | 279 | 0.0 | 0.0 | 0.00 | 0.00 | 0.00 | 63 | 1015.1 |
| 20260906014044 | 89 | 292 | 0.0 | 0.9 | 0.00 | 0.00 | 0.00 | 63 | 1014.9 |
| 20260906013539 | 90 | 304 | 0.0 | 0.0 | 0.00 | 0.00 | 0.00 | 62 | 1014.9 |
| 20260906013035 | 90 | 302 | 0.0 | 0.0 | 0.00 | 0.00 | 0.00 | 61 | 1014.8 |
| 20260906012530 | 90 | 296 | 0.0 | 0.0 | 0.00 | 0.00 | 0.00 | 61 | 1014.6 |
| 20260906012029 | 90 | 309 | 0.0 | 0.0 | 0.00 | 0.00 | 0.00 | 61 | 1014.7 |
| 20260906011526 | 91 | 292 | 0.0 | 0.0 | 0.00 | 0.00 | 0.00 | 61 | 1014.6 |
| 20260906011025 | 91 | 292 | 0.0 | 0.0 | 0.00 | 0.00 | 0.00 | 61 | 1014.5 |
| 20260906010520 | 91 | 311 | 0.0 | 0.0 | 0.00 | 0.00 | 0.00 | 60 | 1014.7 |
| 20260906010017 | 91 | 328 | 0.0 | 0.0 | 0.00 | 0.00 | 0.00 | 59 | 1014.7 |
| 20260906005516 | 91 | 314 | 0.0 | 0.9 | 0.00 | 0.00 | 0.00 | 59 | 1014.5 |
| 20260906005015 | 92 | 299 | 0.0 | 0.9 | 0.00 | 0.00 | 0.00 | 58 | 1014.4 |
| 20260906004515 | 92 | 280 | 0.0 | 0.0 | 0.00 | 0.00 | 0.00 | 57 | 1014.2 |
| 20260906004010 | 92 | 282 | 0.0 | 0.0 | 0.00 | 0.00 | 0.00 | 57 | 1014.3 |
| 20260906003505 | 93 | 269 | 0.0 | 0.9 | 0.00 | 0.00 | 0.00 | 56 | 1014.4 |
| 20260906003000 | 93 | 278 | 0.0 | 0.0 | 0.00 | 0.00 | 0.00 | 56 | 1014.5 |
| 20260906002455 | 94 | 288 | 0.0 | 0.0 | 0.00 | 0.00 | 0.00 | 55 | 1014.5 |
| 20260906001950 | 94 | 288 | 0.0 | 0.0 | 0.00 | 0.00 | 0.00 | 54 | 1014.4 |
| 20260906001446 | 94 | 264 | 0.0 | 0.0 | 0.00 | 0.00 | 0.00 | 53 | 1014.6 |
| 20260906000940 | 95 | 278 | 0.0 | 1.7 | 0.00 | 0.00 | 0.00 | 53 | 1014.4 |
| 20260906000435 | 95 | 292 | 0.0 | 0.0 | 0.00 | 0.00 | 0.00 | 52 | 1014.3 |
| 20260905235925 | 95 | 285 | 0.0 | 1.7 | 0.00 | 0.00 | 0.00 | 52 | 1014.3 |
| 20260905235424 | 95 | 313 | 0.0 | 0.9 | 0.00 | 0.00 | 0.00 | 51 | 1014.3 |
| 20260905234919 | 96 | 288 | 0.0 | 0.9 | 0.00 | 0.00 | 0.00 | 51 | 1014.3 |
| 20260905234414 | 96 | 300 | 0.0 | 0.9 | 0.00 | 0.00 | 0.00 | 51 | 1014.6 |
| 20260905233910 | 96 | 292 | 0.0 | 0.0 | 0.00 | 0.00 | 0.00 | 51 | 1014.5 |
| 20260905233405 | 96 | 10 | 0.9 | 0.9 | 0.00 | 0.00 | 0.00 | 50 | 1014.5 |
| 20260905232903 | 96 | 339 | 0.0 | 0.0 | 0.00 | 0.00 | 0.00 | 51 | 1014.5 |
| 20260905232400 | 96 | 325 | 0.9 | 0.9 | 0.00 | 0.00 | 0.00 | 50 | 1014.6 |
| 20260905231855 | 96 | 277 | 0.0 | 0.9 | 0.00 | 0.00 | 0.00 | 50 | 1014.6 |
| 20260905231350 | 96 | 292 | 0.0 | 0.0 | 0.00 | 0.00 | 0.00 | 50 | 1014.8 |
| 20260905230847 | 97 | 278 | 0.0 | 0.9 | 0.00 | 0.00 | 0.00 | 49 | 1014.5 |
| 20260905230344 | 97 | 290 | 0.0 | 0.9 | 0.00 | 0.00 | 0.00 | 49 | 1014.5 |
| 20260905225843 | 98 | 278 | 0.0 | 2.6 | 0.00 | 0.00 | 0.00 | 48 | 1014.7 |
| 20260905225339 | 99 | 37 | 0.0 | 0.0 | 0.00 | 0.00 | 0.00 | 47 | 1014.5 |
| 20260905224834 | 99 | 345 | 0.0 | 0.9 | 0.00 | 0.00 | 0.00 | 46 | 1014.5 |
| 20260905224329 | 98 | 348 | 0.0 | 0.9 | 0.00 | 0.00 | 0.00 | 48 | 1014.5 |
| 20260905223824 | 98 | 306 | 0.0 | 0.9 | 0.00 | 0.00 | 0.00 | 48 | 1014.2 |
| 20260905223322 | 98 | 291 | 0.0 | 0.9 | 0.00 | 0.00 | 0.00 | 48 | 1014.3 |
| 20260905222817 | 98 | 303 | 0.0 | 1.7 | 0.00 | 0.00 | 0.00 | 50 | 1014.5 |
| 20260905222315 | 98 | 40 | 0.0 | 0.0 | 0.00 | 0.00 | 0.00 | 50 | 1014.5 |
| 20260905221812 | 98 | 40 | 0.0 | 1.7 | 0.00 | 0.00 | 0.00 | 50 | 1014.4 |
| 20260905221309 | 98 | 285 | 0.0 | 0.9 | 0.00 | 0.00 | 0.00 | 49 | 1014.3 |
| 20260905220804 | 98 | 7 | 0.0 | 0.9 | 0.00 | 0.00 | 0.00 | 49 | 1014.6 |
| 20260905220300 | 98 | 47 | 0.9 | 1.7 | 0.00 | 0.00 | 0.00 | 48 | 1014.6 |
| 20260905215759 | 98 | 46 | 0.9 | 1.7 | 0.00 | 0.00 | 0.00 | 48 | 1014.6 |
| 20260905215255 | 99 | 298 | 0.0 | 0.0 | 0.00 | 0.00 | 0.00 | 48 | 1014.8 |
| 20260905214750 | 99 | 291 | 0.9 | 0.9 | 0.00 | 0.00 | 0.00 | 47 | 1014.5 |
| 20260905214246 | 99 | 264 | 0.0 | 0.0 | 0.00 | 0.00 | 0.00 | 48 | 1014.4 |
| 20260905213741 | 98 | 271 | 0.0 | 0.0 | 0.00 | 0.00 | 0.00 | 47 | 1014.5 |
| 20260905213237 | 98 | 29 | 0.9 | 1.7 | 0.00 | 0.00 | 0.00 | 47 | 1014.5 |
| 20260905212732 | 99 | 273 | 0.0 | 2.6 | 0.00 | 0.00 | 0.00 | 45 | 1014.6 |
| 20260905212232 | 99 | 43 | 0.0 | 1.7 | 0.00 | 0.00 | 0.00 | 45 | 1014.6 |
| 20260905211731 | 98 | 289 | 0.0 | 0.0 | 0.00 | 0.00 | 0.00 | 45 | 1014.6 |
| 20260905211226 | 98 | 9 | 0.0 | 0.9 | 0.00 | 0.00 | 0.00 | 46 | 1014.8 |
| 20260905210723 | 97 | 288 | 0.0 | 0.9 | 0.00 | 0.00 | 0.00 | 46 | 1014.6 |
| 20260905210223 | 97 | 292 | 0.0 | 0.0 | 0.00 | 0.00 | 0.00 | 46 | 1014.8 |
| 20260905205721 | 97 | 290 | 0.0 | 0.0 | 0.00 | 0.00 | 0.00 | 45 | 1014.7 |
| 20260905205217 | 97 | 290 | 0.0 | 0.9 | 0.00 | 0.00 | 0.00 | 45 | 1014.8 |
| 20260905204716 | 97 | 275 | 0.0 | 0.0 | 0.00 | 0.00 | 0.00 | 46 | 1014.7 |
| 20260905204212 | 97 | 236 | 0.9 | 0.9 | 0.00 | 0.00 | 0.00 | 47 | 1014.9 |
| 20260905203706 | 98 | 268 | 0.9 | 0.9 | 0.00 | 0.00 | 0.00 | 48 | 1015.0 |
| 20260905203202 | 98 | 299 | 0.0 | 0.0 | 0.00 | 0.00 | 0.00 | 47 | 1014.7 |
| 20260905202657 | 99 | 285 | 0.0 | 0.9 | 0.00 | 0.00 | 0.00 | 46 | 1014.9 |
| 20260905202152 | 99 | 293 | 0.0 | 1.7 | 0.00 | 0.00 | 0.00 | 46 | 1014.8 |
| 20260905201648 | 99 | 275 | 0.0 | 0.9 | 0.00 | 0.00 | 0.00 | 46 | 1014.8 |
| 20260905201147 | 100 | 303 | 0.0 | 1.7 | 0.00 | 0.00 | 0.00 | 44 | 1015.0 |
| 20260905200643 | 101 | 198 | 0.0 | 0.9 | 0.00 | 0.00 | 0.00 | 43 | 1015.0 |
| 20260905200138 | 100 | 356 | 0.9 | 1.7 | 0.00 | 0.00 | 0.00 | 43 | 1015.1 |
| 20260905195636 | 101 | 278 | 0.0 | 0.9 | 0.00 | 0.00 | 0.00 | 42 | 1015.0 |
| 20260905195131 | 101 | 306 | 0.0 | 0.9 | 0.00 | 0.00 | 0.00 | 43 | 1014.9 |
| 20260905194626 | 102 | 295 | 0.0 | 2.6 | 0.00 | 0.00 | 0.00 | 41 | 1015.4 |
| 20260905194125 | 102 | 335 | 0.9 | 1.7 | 0.00 | 0.00 | 0.00 | 42 | 1015.4 |
| 20260905193621 | 102 | 261 | 0.0 | 1.7 | 0.00 | 0.00 | 0.00 | 42 | 1015.6 |
| 20260905193115 | 102 | 261 | 0.0 | 0.9 | 0.00 | 0.00 | 0.00 | 42 | 1015.4 |
| 20260905192611 | 102 | 286 | 0.9 | 1.7 | 0.00 | 0.00 | 0.00 | 42 | 1015.6 |
| 20260905192108 | 102 | 266 | 0.0 | 2.6 | 0.00 | 0.00 | 0.00 | 42 | 1015.6 |
| 20260905191606 | 103 | 40 | 1.7 | 2.6 | 0.00 | 0.00 | 0.00 | 41 | 1015.7 |
| 20260905191105 | 103 | 14 | 0.9 | 1.7 | 0.00 | 0.00 | 0.00 | 42 | 1015.9 |
| 20260905190603 | 103 | 291 | 0.0 | 0.9 | 0.00 | 0.00 | 0.00 | 41 | 1015.6 |
| 20260905185601 | 103 | 276 | 0.0 | 0.9 | 0.00 | 0.00 | 0.00 | 41 | 1015.8 |
| 20260905185056 | 103 | 325 | 0.0 | 2.6 | 0.00 | 0.00 | 0.00 | 40 | 1015.7 |
| 20260905184551 | 105 | 271 | 0.9 | 4.3 | 0.00 | 0.00 | 0.00 | 41 | 1015.8 |
| 20260905184050 | 105 | 216 | 0.0 | 1.7 | 0.00 | 0.00 | 0.00 | 41 | 1016.0 |
| 20260905183549 | 104 | 296 | 0.0 | 1.7 | 0.00 | 0.00 | 0.00 | 41 | 1015.9 |
| 20260905183045 | 103 | 346 | 1.7 | 2.6 | 0.00 | 0.00 | 0.00 | 41 | 1016.0 |
| 20260905182544 | 104 | 337 | 0.9 | 0.9 | 0.00 | 0.00 | 0.00 | 42 | 1016.1 |
| 20260905182045 | 103 | 20 | 1.7 | 2.6 | 0.00 | 0.00 | 0.00 | 43 | 1016.1 |
| 20260905181545 | 102 | 315 | 0.0 | 0.9 | 0.00 | 0.00 | 0.00 | 46 | 1016.1 |
| 20260905181045 | 102 | 302 | 0.0 | 1.7 | 0.00 | 0.00 | 0.00 | 44 | 1016.1 |
| 20260905180545 | 102 | 57 | 0.0 | 0.0 | 0.00 | 0.00 | 0.00 | 46 | 1016.3 |
| 20260905180040 | 101 | 57 | 0.0 | 0.9 | 0.00 | 0.00 | 0.00 | 47 | 1016.4 |
| 20260905175539 | 100 | 57 | 0.0 | 0.9 | 0.00 | 0.00 | 0.00 | 48 | 1016.4 |
| 20260905175035 | 100 | 57 | 0.0 | 0.9 | 0.00 | 0.00 | 0.00 | 49 | 1016.3 |
| 20260905174530 | 100 | 296 | 1.7 | 1.7 | 0.00 | 0.00 | 0.00 | 49 | 1016.4 |
| 20260905174026 | 98 | 45 | 0.0 | 1.7 | 0.00 | 0.00 | 0.00 | 49 | 1016.5 |
| 20260905173522 | 100 | 299 | 0.0 | 0.0 | 0.00 | 0.00 | 0.00 | 49 | 1016.5 |
| 20260905173018 | 99 | 37 | 0.0 | 1.7 | 0.00 | 0.00 | 0.00 | 49 | 1016.6 |
| 20260905172516 | 99 | 283 | 0.0 | 0.9 | 0.00 | 0.00 | 0.00 | 49 | 1016.5 |
| 20260905172012 | 98 | 294 | 0.0 | 2.6 | 0.00 | 0.00 | 0.00 | 49 | 1016.6 |
| 20260905171508 | 99 | 306 | 0.0 | 1.7 | 0.00 | 0.00 | 0.00 | 49 | 1016.6 |
| 20260905171003 | 98 | 309 | 0.0 | 0.9 | 0.00 | 0.00 | 0.00 | 49 | 1016.9 |
| 20260905170500 | 99 | 28 | 0.9 | 1.7 | 0.00 | 0.00 | 0.00 | 49 | 1016.9 |
| 20260905165954 | 99 | 298 | 0.9 | 0.9 | 0.00 | 0.00 | 0.00 | 48 | 1016.9 |
| 20260905165449 | 99 | 41 | 0.0 | 0.0 | 0.00 | 0.00 | 0.00 | 49 | 1017.0 |
| 20260905164944 | 98 | 272 | 0.0 | 1.7 | 0.00 | 0.00 | 0.00 | 49 | 1016.9 |
| 20260905164438 | 98 | 321 | 0.0 | 1.7 | 0.00 | 0.00 | 0.00 | 52 | 1017.2 |
| 20260905163933 | 97 | 324 | 0.9 | 1.7 | 0.00 | 0.00 | 0.00 | 52 | 1017.1 |
| 20260905163430 | 96 | 313 | 0.0 | 0.9 | 0.00 | 0.00 | 0.00 | 54 | 1017.3 |
| 20260905162925 | 96 | 298 | 0.0 | 1.7 | 0.00 | 0.00 | 0.00 | 55 | 1017.2 |
| 20260905162420 | 95 | 273 | 0.0 | 0.9 | 0.00 | 0.00 | 0.00 | 55 | 1017.2 |
| 20260905161915 | 95 | 341 | 0.0 | 0.0 | 0.00 | 0.00 | 0.00 | 55 | 1017.2 |
| 20260905161414 | 95 | 293 | 0.0 | 1.7 | 0.00 | 0.00 | 0.00 | 55 | 1017.3 |
| 20260905160912 | 95 | 269 | 0.0 | 1.7 | 0.00 | 0.00 | 0.00 | 56 | 1017.4 |
| 20260905160406 | 94 | 252 | 0.0 | 0.9 | 0.00 | 0.00 | 0.00 | 57 | 1017.3 |
| 20260905155901 | 94 | 287 | 0.0 | 0.9 | 0.00 | 0.00 | 0.00 | 58 | 1017.3 |
| 20260905155401 | 93 | 32 | 2.6 | 4.3 | 0.00 | 0.00 | 0.00 | 58 | 1017.1 |
| 20260905154859 | 93 | 283 | 0.0 | 0.9 | 0.00 | 0.00 | 0.00 | 59 | 1017.5 |
| 20260905154355 | 93 | 302 | 0.0 | 0.9 | 0.00 | 0.00 | 0.00 | 59 | 1017.4 |
| 20260905153850 | 93 | 320 | 0.0 | 2.6 | 0.00 | 0.00 | 0.00 | 60 | 1017.5 |
| 20260905153347 | 92 | 263 | 0.0 | 0.9 | 0.00 | 0.00 | 0.00 | 62 | 1017.4 |
| 20260905152846 | 92 | 34 | 0.0 | 0.9 | 0.00 | 0.00 | 0.00 | 63 | 1017.3 |
| 20260905152346 | 93 | 7 | 1.7 | 1.7 | 0.00 | 0.00 | 0.00 | 62 | 1017.3 |
| 20260905151841 | 92 | 268 | 0.0 | 0.0 | 0.00 | 0.00 | 0.00 | 64 | 1017.5 |
| 20260905151337 | 91 | 246 | 0.0 | 0.9 | 0.00 | 0.00 | 0.00 | 64 | 1017.4 |
| 20260905150837 | 91 | 26 | 0.9 | 1.7 | 0.00 | 0.00 | 0.00 | 65 | 1017.6 |
| 20260905150331 | 90 | 304 | 0.0 | 0.9 | 0.00 | 0.00 | 0.00 | 66 | 1017.4 |
| 20260905145829 | 90 | 359 | 0.9 | 0.9 | 0.00 | 0.00 | 0.00 | 66 | 1017.3 |